Date String (YYYY-MM-DD hh:mm:ss) UTC,Instrument flags,Ambient pressure (hPa),Sample flow (lpm),Bypass flow (lpm),Sample temperature (°C),Ambient temperature (°C),ASC tube jacket temperature (°C),LED temperature (°C),Box temperature (°C),Sample RH (%),Span deviation,Mass concentration (μg/m³),Mass concentration (μg/m³),Mass concentration (μg/m³)
DateTimeUTC,F1_M11,P_M11,Q1_M11,Q2_M11,T1_M11,T2_M11,T3_M11,T4_M11,T5_M11,U1_M11,ZSPAN_M11,X2_M11,X0_M11,X1_M11
2023-05-20 21:00:00,,0835.7,5.00,0.00,29.5,28.1,00.0,37.7,31.1,25.5,0003.2,0045.08,0059.28,0043.31
2023-05-20 21:01:00,,0835.7,4.99,0.00,29.5,28.1,00.0,37.8,31.2,25.6,0003.1,0044.98,0059.13,0043.25
2023-05-20 21:02:00,,0835.7,5.00,0.00,29.5,28.2,00.0,37.8,31.2,25.9,0003.1,0044.91,0058.95,0043.22
2023-05-20 21:03:00,,0835.7,5.00,0.00,29.5,28.2,00.0,37.8,31.2,25.6,0003.0,0044.91,0059.36,0043.21
2023-05-20 21:04:00,,0835.7,5.01,0.00,29.5,28.2,00.0,37.8,31.2,25.4,0003.0,0044.80,0059.71,0043.09
2023-05-20 21:05:00,,0835.6,5.01,0.00,29.6,27.9,00.0,37.8,31.2,25.2,0002.9,0044.65,0059.52,0042.96
2023-05-20 21:06:00,,0835.6,4.98,0.00,29.5,26.3,00.0,37.7,31.0,25.1,0003.0,0044.50,0058.85,0042.81
2023-05-20 21:07:00,,0835.6,5.01,0.00,29.5,25.5,00.0,37.6,30.9,25.0,0003.0,0044.43,0058.73,0042.69
2023-05-20 21:08:00,,0835.7,5.01,0.00,29.4,25.6,00.0,37.6,30.8,25.2,0003.1,0044.28,0058.23,0042.53
2023-05-20 21:09:00,,0835.6,4.99,0.00,29.3,25.9,00.0,37.6,30.8,25.5,0003.0,0044.17,0057.78,0042.45
2023-05-20 21:10:00,,0835.6,4.99,0.00,29.3,26.2,00.0,37.6,30.8,25.8,0003.0,0044.02,0057.42,0042.37
2023-05-20 21:11:00,,0835.6,5.00,0.00,29.3,26.6,00.0,37.6,30.8,26.8,0003.0,0044.00,0057.41,0042.30
2023-05-20 21:12:00,,0835.6,5.01,0.00,29.3,26.8,00.0,37.6,30.9,26.8,0003.2,0044.00,0057.45,0042.29
2023-05-20 21:13:00,,0835.6,5.00,0.00,29.3,27.1,00.0,37.6,30.9,26.1,0003.1,0043.95,0057.39,0042.24
2023-05-20 21:14:00,,0835.6,4.99,0.00,29.3,27.3,00.0,37.6,30.9,25.0,0003.1,0043.90,0057.07,0042.19
2023-05-20 21:15:00,,0835.6,4.99,0.00,29.3,27.4,00.0,37.6,30.9,25.1,0003.1,0043.90,0056.49,0042.17
2023-05-20 21:16:00,,0835.6,5.00,0.00,29.3,27.5,00.0,37.6,30.9,25.3,0003.2,0043.95,0056.38,0042.23
2023-05-20 21:17:00,,0835.6,5.01,0.00,29.3,27.6,00.0,37.6,30.9,25.6,0003.2,0044.00,0056.44,0042.26
2023-05-20 21:18:00,,0835.6,5.01,0.00,29.3,27.7,00.0,37.6,30.9,25.4,0003.2,0043.96,0056.24,0042.26
2023-05-20 21:19:00,,0835.6,5.00,0.00,29.3,27.7,00.0,37.6,30.9,25.4,0003.2,0043.93,0056.13,0042.26
2023-05-20 21:20:00,,0835.5,5.00,0.00,29.3,27.8,00.0,37.6,30.9,25.4,0003.2,0043.90,0056.01,0042.22
2023-05-20 21:21:00,,0835.6,5.00,0.00,29.3,27.8,00.0,37.6,31.0,25.6,0003.2,0043.96,0056.33,0042.23
2023-05-20 21:22:00,,0835.5,5.00,0.00,29.3,27.8,00.0,37.7,31.0,25.4,0003.2,0043.95,0056.71,0042.22
2023-05-20 21:23:00,,0835.5,5.00,0.00,29.3,27.9,00.0,37.7,31.0,24.9,0003.1,0043.97,0056.73,0042.23
2023-05-20 21:24:00,,0835.5,5.00,0.00,29.3,27.9,00.0,37.7,31.0,24.4,0003.1,0043.98,0057.16,0042.24
2023-05-20 21:25:00,,0835.5,5.00,0.00,29.4,27.9,00.0,37.7,31.0,24.8,0003.2,0043.94,0057.19,0042.22
2023-05-20 21:26:00,,0835.5,5.01,0.00,29.4,28.0,00.0,37.7,31.0,24.9,0003.2,0043.90,0057.20,0042.18
2023-05-20 21:27:00,,0835.5,5.01,0.00,29.4,28.0,00.0,37.7,31.0,24.2,0003.2,0043.72,0057.25,0042.02
2023-05-20 21:28:00,,0835.5,5.00,0.00,29.4,28.0,00.0,37.7,31.1,23.8,0003.2,0043.54,0057.19,0041.86
2023-05-20 21:29:00,,0835.6,5.00,0.00,29.4,28.0,00.0,37.7,31.1,23.6,0003.1,0043.38,0056.71,0041.75
2023-05-20 21:30:00,,0835.6,5.00,0.00,29.4,28.0,00.0,37.7,31.1,23.7,0003.0,0043.06,0056.29,0041.46
2023-05-20 21:31:00,,0835.5,5.00,0.00,29.4,28.0,00.0,37.8,31.1,23.8,0003.1,0042.82,0056.01,0041.20
2023-05-20 21:32:00,,0835.5,4.99,0.00,29.5,27.9,00.0,37.8,31.1,24.6,0003.2,0042.58,0055.66,0040.99
2023-05-20 21:33:00,,0835.5,4.99,0.00,29.5,26.5,00.0,37.7,31.0,24.3,0003.2,0042.27,0054.68,0040.72
2023-05-20 21:34:00,,0835.5,5.01,0.00,29.4,25.5,00.0,37.6,30.8,24.1,0003.2,0041.95,0054.33,0040.46
2023-05-20 21:35:00,,0835.5,5.01,0.00,29.3,25.5,00.0,37.6,30.7,24.5,0003.2,0041.68,0053.71,0040.20
2023-05-20 21:36:00,,0835.5,5.00,0.00,29.3,25.8,00.0,37.6,30.7,24.1,0003.2,0041.54,0053.33,0040.05
2023-05-20 21:37:00,,0835.5,5.00,0.00,29.2,26.1,00.0,37.6,30.7,24.4,0003.2,0041.40,0053.12,0039.90
2023-05-20 21:38:00,,0835.4,5.00,0.00,29.2,26.5,00.0,37.6,30.7,25.7,0003.2,0041.31,0052.70,0039.82
2023-05-20 21:39:00,,0835.4,4.99,0.00,29.2,26.8,00.0,37.6,30.8,26.2,0003.2,0041.29,0052.61,0039.74
2023-05-20 21:40:00,,0835.4,4.99,0.00,29.2,27.0,00.0,37.6,30.8,25.9,0003.2,0041.14,0053.02,0039.57
2023-05-20 21:41:00,,0835.4,5.00,0.00,29.2,27.2,00.0,37.6,30.8,26.0,0003.3,0041.13,0053.40,0039.53
2023-05-20 21:42:00,,0835.4,5.01,0.00,29.2,27.4,00.0,37.6,30.9,24.3,0003.2,0041.23,0053.83,0039.62
2023-05-20 21:43:00,,0835.4,5.01,0.00,29.3,27.5,00.0,37.6,30.9,24.0,0003.2,0041.21,0053.94,0039.60
2023-05-20 21:44:00,,0835.4,5.00,0.00,29.3,27.6,00.0,37.6,30.9,24.0,0003.2,0041.13,0054.25,0039.52
2023-05-20 21:45:00,,0835.4,4.98,0.00,29.3,27.7,00.0,37.6,30.9,23.4,0003.3,0041.00,0054.01,0039.38
2023-05-20 21:46:00,,0835.5,5.00,0.00,29.3,27.8,00.0,37.6,30.9,23.2,0003.3,0040.89,0053.95,0039.22
2023-05-20 21:47:00,,0835.5,5.01,0.00,29.3,27.8,00.0,37.6,31.0,23.0,0003.3,0040.73,0053.97,0039.03
2023-05-20 21:48:00,,0835.5,5.00,0.00,29.3,27.9,00.0,37.6,31.0,23.0,0003.3,0040.45,0054.02,0038.78
2023-05-20 21:49:00,,0835.5,5.01,0.00,29.3,27.9,00.0,37.6,31.0,22.7,0003.3,0040.10,0053.76,0038.49
2023-05-20 21:50:00,,0835.5,4.99,0.00,29.4,28.0,00.0,37.7,31.0,22.7,0003.3,0039.76,0053.22,0038.22
2023-05-20 21:51:00,,0835.5,4.99,0.00,29.4,28.1,00.0,37.7,31.1,22.3,0003.3,0039.54,0052.34,0038.01
2023-05-20 21:52:00,,0835.5,5.00,0.00,29.4,28.1,00.0,37.7,31.1,22.9,0003.3,0039.28,0051.59,0037.78
2023-05-20 21:53:00,,0835.5,5.01,0.00,29.4,28.1,00.0,37.7,31.1,23.1,0003.3,0039.03,0051.01,0037.54
2023-05-20 21:54:00,,0835.5,5.01,0.00,29.4,28.2,00.0,37.7,31.1,22.2,0003.3,0038.80,0050.57,0037.31
2023-05-20 21:55:00,,0835.5,5.00,0.00,29.5,28.2,00.0,37.7,31.1,22.3,0003.2,0038.63,0050.22,0037.11
2023-05-20 21:56:00,,0835.5,4.98,0.00,29.5,27.4,00.0,37.7,31.1,22.9,0003.1,0038.44,0050.07,0036.94
2023-05-20 21:57:00,,0835.4,5.01,0.00,29.4,25.9,00.0,37.6,30.8,22.5,0003.0,0038.28,0049.88,0036.81
2023-05-20 21:58:00,,0835.3,5.00,0.00,29.4,25.5,00.0,37.6,30.7,23.1,0002.9,0038.17,0049.59,0036.73
2023-05-20 21:59:00,,0835.3,5.00,0.00,29.3,25.7,00.0,37.6,30.6,23.3,0003.0,0038.06,0048.92,0036.64
